Location: Unspecified
(48.8656°N, 0.0000°E)
Time: 13:46:20
(UTC+00:00)

SR - Pass Details

Date: 28 June 2019
Orbit: 578 x 878 km, 66.7° (Epoch: 19 August)

Event Time Altitude Azimuth Distance (km) Brightness Sun altitude
Rises 11:52:28 0° 314° (NW) 3,055 ? 64.3°
Reaches altitude 10° 11:55:06 10° 300° (WNW) 2,188 ? 64.4°
Maximum altitude 11:59:01 23° 248° (WSW) 1,533 ? 64.4°
Drops below altitude 10° 12:03:10 10° 197° (SSW) 2,333 ? 64.4°
Sets 12:06:05 0° 184° (S) 3,309 ? 64.4°
